• En España
  • Lista de países
  • Para 7 días
  • Temperatura del agua
  • Mapa Satelital
  • El tiempo en el mapa
  • Informadores
  • user-avatar
    Iniciar sesión

    Tiempo cada hora Bakhtaran

    Hoy, 22 Septiembre, Sábado

    Tiempo Temperatura Precipitaciones Viento Presión Humedad
    00:00 +20°C° 0 mm 0 mps 638 mmHg 20%
    01:00 +19°C° 0 mm 0 mps 638 mmHg 20%
    02:00 +19°C° 0 mm 0 mps 638 mmHg 21%
    03:00 +19°C° 0 mm 0 mps 638 mmHg 22%
    04:00 +18°C° 0 mm 0 mps 638 mmHg 22%
    05:00 +18°C° 0 mm 0 mps 638 mmHg 23%
    06:00 +18°C° 0 mm 0 mps 638 mmHg 24%
    07:00 +21°C° 0 mm 0 mps 639 mmHg 21%
    08:00 +26°C° 0 mm 1 mps 640 mmHg 18%
    09:00 +29°C° 0 mm 1 mps 641 mmHg 15%
    10:00 +30°C° 0 mm 2 mps 641 mmHg 15%
    11:00 +33°C° 0 mm 3 mps 641 mmHg 14%
    12:00 +34°C° 0 mm 4 mps 642 mmHg 13%
    13:00 +34°C° 0 mm 5 mps 641 mmHg 13%
    14:00 +34°C° 0 mm 6 mps 641 mmHg 13%
    15:00 +34°C° 0 mm 6 mps 641 mmHg 13%
    16:00 +33°C° 0 mm 6 mps 640 mmHg 14%
    17:00 +30°C° 0 mm 5 mps 639 mmHg 15%
    18:00 +29°C° 0 mm 4 mps 639 mmHg 16%
    19:00 +28°C° 0 mm 3 mps 639 mmHg 18%
    20:00 +26°C° 0 mm 3 mps 639 mmHg 20%
    21:00 +25°C° 0 mm 2 mps 638 mmHg 22%
    22:00 +24°C° 0 mm 2 mps 638 mmHg 22%
    23:00 +24°C° 0 mm 2 mps 638 mmHg 23%

    Mañana, 23 Septiembre, Domingo

    Tiempo Temperatura Precipitaciones Viento Presión Humedad
    00:00 +23°C° 0 mm 2 mps 638 mmHg 24%
    01:00 +23°C° 0 mm 1 mps 638 mmHg 25%
    02:00 +22°C° 0 mm 1 mps 638 mmHg 26%
    03:00 +21°C° 0 mm 1 mps 637 mmHg 27%
    04:00 +21°C° 0 mm 1 mps 637 mmHg 29%
    05:00 +20°C° 0 mm 1 mps 637 mmHg 30%
    06:00 +18°C° 0 mm 0 mps 637 mmHg 31%
    07:00 +22°C° 0 mm 1 mps 638 mmHg 25%
    08:00 +25°C° 0 mm 2 mps 639 mmHg 19%
    09:00 +28°C° 0 mm 2 mps 640 mmHg 14%
    10:00 +29°C° 0 mm 3 mps 641 mmHg 11%
    11:00 +32°C° 0 mm 4 mps 641 mmHg 9%
    12:00 +33°C° 0 mm 5 mps 641 mmHg 6%
    13:00 +33°C° 0 mm 6 mps 641 mmHg 7%
    14:00 +33°C° 0 mm 7 mps 640 mmHg 7%
    15:00 +33°C° 0 mm 7 mps 640 mmHg 7%
    16:00 +30°C° 0 mm 6 mps 640 mmHg 10%
    17:00 +28°C° 0 mm 5 mps 639 mmHg 13%
    18:00 +26°C° 0 mm 3 mps 638 mmHg 15%
    19:00 +24°C° 0 mm 3 mps 638 mmHg 18%
    20:00 +23°C° 0 mm 2 mps 638 mmHg 20%
    21:00 +22°C° 0 mm 1 mps 638 mmHg 23%
    22:00 +21°C° 0 mm 1 mps 638 mmHg 24%
    23:00 +20°C° 0 mm 1 mps 638 mmHg 26%

    Pasado mañana, 24 Septiembre, Lunes

    Tiempo Temperatura Precipitaciones Viento Presión Humedad
    00:00 +20°C° 0 mm 1 mps 637 mmHg 27%
    01:00 +19°C° 0 mm 1 mps 637 mmHg 29%
    02:00 +17°C° 0 mm 0 mps 637 mmHg 30%
    03:00 +16°C° 0 mm 0 mps 637 mmHg 31%
    04:00 +16°C° 0 mm 0 mps 636 mmHg 32%
    05:00 +15°C° 0 mm 0 mps 636 mmHg 33%
    06:00 +15°C° 0 mm 0 mps 636 mmHg 34%
    07:00 +18°C° 0 mm 0 mps 637 mmHg 29%
    08:00 +21°C° 0 mm 0 mps 638 mmHg 24%
    09:00 +23°C° 0 mm 0 mps 639 mmHg 19%
    10:00 +27°C° 0 mm 1 mps 640 mmHg 17%
    11:00 +28°C° 0 mm 1 mps 640 mmHg 15%
    12:00 +29°C° 0 mm 1 mps 640 mmHg 13%
    13:00 +30°C° 0 mm 2 mps 640 mmHg 12%
    14:00 +30°C° 0 mm 2 mps 639 mmHg 11%
    15:00 +30°C° 0 mm 2 mps 639 mmHg 10%
    16:00 +29°C° 0 mm 2 mps 639 mmHg 11%
    17:00 +27°C° 0 mm 2 mps 638 mmHg 12%
    18:00 +26°C° 0 mm 2 mps 638 mmHg 13%
    19:00 +25°C° 0 mm 2 mps 638 mmHg 15%
    20:00 +24°C° 0 mm 2 mps 638 mmHg 16%
    21:00 +23°C° 0 mm 2 mps 638 mmHg 18%
    22:00 +21°C° 0 mm 2 mps 638 mmHg 19%
    23:00 +21°C° 0 mm 2 mps 637 mmHg 20%

    25 Septiembre, Martes

    Tiempo Temperatura Precipitaciones Viento Presión Humedad
    00:00 +20°C° 0 mm 2 mps 637 mmHg 21%
    01:00 +20°C° 0 mm 1 mps 637 mmHg 22%
    02:00 +20°C° 0 mm 1 mps 637 mmHg 23%
    03:00 +19°C° 0 mm 1 mps 636 mmHg 25%
    04:00 +19°C° 0 mm 1 mps 636 mmHg 27%
    05:00 +18°C° 0 mm 1 mps 636 mmHg 29%
    06:00 +18°C° 0 mm 1 mps 636 mmHg 31%
    07:00 +20°C° 0 mm 1 mps 637 mmHg 27%
    08:00 +23°C° 0 mm 1 mps 638 mmHg 23%
    09:00 +26°C° 0 mm 1 mps 639 mmHg 20%
    10:00 +27°C° 0 mm 1 mps 640 mmHg 17%
    11:00 +29°C° 0 mm 1 mps 640 mmHg 14%
    12:00 +30°C° 0 mm 1 mps 640 mmHg 11%
    13:00 +31°C° 0 mm 1 mps 639 mmHg 10%
    14:00 +31°C° 0 mm 1 mps 639 mmHg 9%
    15:00 +31°C° 0 mm 2 mps 638 mmHg 9%
    16:00 +30°C° 0 mm 2 mps 638 mmHg 10%
    17:00 +28°C° 0 mm 2 mps 637 mmHg 11%
    18:00 +26°C° 0 mm 2 mps 637 mmHg 12%
    19:00 +25°C° 0 mm 1 mps 637 mmHg 14%
    20:00 +24°C° 0 mm 1 mps 637 mmHg 16%
    21:00 +23°C° 0 mm 1 mps 637 mmHg 17%
    22:00 +22°C° 0 mm 1 mps 637 mmHg 18%
    23:00 +21°C° 0 mm 1 mps 636 mmHg 19%

    26 Septiembre, Miércoles

    Tiempo Temperatura Precipitaciones Viento Presión Humedad
    00:00 +19°C° 0 mm 0 mps 636 mmHg 20%
    01:00 +18°C° 0 mm 0 mps 636 mmHg 21%
    02:00 +18°C° 0 mm 0 mps 635 mmHg 22%
    03:00 +17°C° 0 mm 0 mps 635 mmHg 22%
    04:00 +17°C° 0 mm 0 mps 635 mmHg 23%
    05:00 +17°C° 0 mm 0 mps 635 mmHg 23%
    06:00 +16°C° 0 mm 0 mps 635 mmHg 24%
    07:00 +19°C° 0 mm 0 mps 637 mmHg 20%
    08:00 +24°C° 0 mm 1 mps 638 mmHg 17%
    09:00 +27°C° 0 mm 1 mps 639 mmHg 13%
    10:00 +28°C° 0 mm 1 mps 639 mmHg 12%
    11:00 +30°C° 0 mm 2 mps 639 mmHg 10%
    12:00 +31°C° 0 mm 3 mps 639 mmHg 9%
    13:00 +31°C° 0 mm 3 mps 639 mmHg 8%
    14:00 +33°C° 0 mm 4 mps 638 mmHg 7%
    15:00 +33°C° 0 mm 4 mps 638 mmHg 7%
    16:00 +30°C° 0 mm 4 mps 638 mmHg 8%
    17:00 +28°C° 0 mm 3 mps 637 mmHg 9%
    18:00 +26°C° 0 mm 3 mps 637 mmHg 11%
    19:00 +25°C° 0 mm 2 mps 637 mmHg 12%
    20:00 +24°C° 0 mm 1 mps 637 mmHg 14%
    21:00 +22°C° 0 mm 1 mps 637 mmHg 15%
    22:00 +22°C° 0 mm 1 mps 637 mmHg 16%
    23:00 +19°C° 0 mm 0 mps 637 mmHg 18%

    27 Septiembre, Jueves

    Tiempo Temperatura Precipitaciones Viento Presión Humedad
    00:00 +18°C° 0 mm 0 mps 636 mmHg 19%
    01:00 +18°C° 0 mm 0 mps 636 mmHg 19%
    02:00 +18°C° 0 mm 0 mps 636 mmHg 19%
    03:00 +17°C° 0 mm 0 mps 636 mmHg 20%
    04:00 +19°C° 0 mm 1 mps 637 mmHg 20%
    05:00 +19°C° 0 mm 1 mps 637 mmHg 21%
    06:00 +19°C° 0 mm 1 mps 637 mmHg 22%
    07:00 +21°C° 0 mm 1 mps 638 mmHg 19%
    08:00 +24°C° 0 mm 1 mps 639 mmHg 16%
    09:00 +27°C° 0 mm 1 mps 641 mmHg 13%
    10:00 +28°C° 0 mm 1 mps 641 mmHg 13%
    11:00 +30°C° 0 mm 1 mps 641 mmHg 12%
    12:00 +31°C° 0 mm 1 mps 641 mmHg 11%
    13:00 +31°C° 0 mm 1 mps 641 mmHg 11%
    14:00 +32°C° 0 mm 1 mps 641 mmHg 11%
    15:00 +32°C° 0 mm 2 mps 640 mmHg 11%
    16:00 +30°C° 0 mm 2 mps 640 mmHg 13%
    17:00 +29°C° 0 mm 1 mps 640 mmHg 14%
    18:00 +28°C° 0 mm 1 mps 639 mmHg 15%
    19:00 +27°C° 0 mm 1 mps 639 mmHg 17%
    20:00 +25°C° 0 mm 1 mps 639 mmHg 18%
    21:00 +24°C° 0 mm 1 mps 639 mmHg 20%
    22:00 +24°C° 0 mm 1 mps 639 mmHg 21%
    23:00 +23°C° 0 mm 1 mps 639 mmHg 22%
    Mostrar más